Starlink 4590

operational
NORAD ID: 53606 Int'l Des: 2022-104 Owner: SPXS Country: US Constellation: starlink
LEOCIRCULAR

关于 Starlink 4590

正在加载描述...

实时位置

正在加载3D地球...

即将过境

高度历史

Altitude vs Time

uPlot chart will show altitude changes over time

两行轨道根数

1 53606U 22104U 25351.88475724 .00000004 00000-0 18361-4 0 9997
2 53606 53.2168 241.4703 0001637 82.1656 277.9522 15.08838852183287
Epoch: Dec 17, 2025 • Age: 13 hours

当前状态

高度 539.6 km
速度 7.59 km/s
星下点 9.06°N, 8.59°E
发射日期 Aug 28, 2022
运行时间 3.3 years
类型 internet

技术详情

分类 Payload
质量 300.00 kg
干质量 290.00 kg
总质量 300.00 kg
长度 0.20 m
直径 2.80 m
跨度 9.00 m
形状 Box + pan
制造商 SPXS
平台类型 Starlink
阶段状态 In Orbit
所有者/国家 SPXS/US

大型星座

Loading constellations...